N6AC Weather Reports


time (UTC)temp
C
wind
direction
speed
KPH
gust
KPH
rain 1hr
cm
rain 24hr
cm
rain mn
cm
humidity
%
barometer
mb
20260902092858 16 180 1.6 1.6 0.00 0.00 0.00 84 1013.4
20260902092353 16 293 1.6 1.6 0.00 0.00 0.00 85 1013.5
20260902091848 15 248 3.2 3.2 0.00 0.00 0.00 85 1013.5
20260902091338 15 203 4.8 4.8 0.00 0.00 0.00 86 1013.5
20260902090328 15 293 3.2 3.2 0.00 0.00 0.00 86 1013.5
20260902085823 15 248 3.2 3.2 0.00 0.00 0.00 86 1013.5
20260902085318 15 248 3.2 3.2 0.00 0.00 0.00 86 1013.5
20260902084809 15 225 3.2 3.2 0.00 0.00 0.00 86 1013.5
20260902084303 15 248 0.0 0.0 0.00 0.00 0.00 85 1013.5
20260902083758 15 248 0.0 0.0 0.00 0.00 0.00 85 1013.7
20260902083253 15 293 0.0 0.0 0.00 0.00 0.00 84 1013.7
20260902082238 15 225 0.0 0.0 0.00 0.00 0.00 84 1013.6
20260902081733 15 315 0.0 0.0 0.00 0.00 0.00 85 1013.6
20260902081228 15 23 3.2 3.2 0.00 0.00 0.00 85 1013.6
20260902080723 16 225 3.2 3.2 0.00 0.00 0.00 85 1013.6
20260902075203 15 293 4.8 4.8 0.00 0.00 0.00 86 1013.6
20260902074659 15 338 4.8 4.8 0.00 0.00 0.00 86 1013.6
20260902074153 15 45 6.4 6.4 0.00 0.00 0.00 86 1013.6
20260902073648 15 293 6.4 6.4 0.00 0.00 0.00 86 1013.4
20260902073138 15 248 4.8 4.8 0.00 0.00 0.00 86 1013.4
20260902072633 15 203 4.8 4.8 0.00 0.00 0.00 86 1013.3
20260902072128 15 293 1.6 1.6 0.00 0.00 0.00 86 1013.3
20260902071623 15 338 4.8 4.8 0.00 0.00 0.00 86 1013.3
20260902071119 15 338 3.2 3.2 0.00 0.00 0.00 86 1013.2
20260902070608 15 338 3.2 3.2 0.00 0.00 0.00 86 1013.2
20260902070049 15 338 0.0 0.0 0.00 0.00 0.00 85 1013.1
20260902065539 15 0 0.0 0.0 0.00 0.00 0.00 85 1013.1
20260902065033 15 338 0.0 0.0 0.00 0.00 0.00 85 1013.0
20260902064528 15 338 0.0 0.0 0.00 0.00 0.00 85 1013.0
20260902064023 15 338 0.0 0.0 0.00 0.00 0.00 85 1013.0
20260902063518 15 293 1.6 1.6 0.00 0.00 0.00 85 1013.2
20260902063008 15 203 1.6 1.6 0.00 0.00 0.00 85 1013.2
20260902062503 15 338 3.2 3.2 0.00 0.00 0.00 85 1013.0
20260902061959 15 338 3.2 3.2 0.00 0.00 0.00 84 1013.0
20260902061454 15 293 0.0 0.0 0.00 0.00 0.00 83 1013.0
20260902060943 15 315 0.0 0.0 0.00 0.00 0.00 82 1013.0
20260902060438 15 270 0.0 0.0 0.00 0.00 0.00 81 1013.0
20260902055933 16 158 0.0 0.0 0.00 0.00 0.00 81 1013.0
20260902055429 15 113 3.2 3.2 0.00 0.00 0.00 82 1013.0
20260902054419 15 270 3.2 3.2 0.00 0.00 0.00 82 1013.0
20260902053908 15 338 0.0 0.0 0.00 0.00 0.00 80 1012.9
20260902053403 16 315 1.6 1.6 0.00 0.00 0.00 80 1012.9
20260902052858 16 90 1.6 1.6 0.00 0.00 0.00 80 1012.9
20260902052333 16 113 3.2 3.2 0.00 0.00 0.00 80 1012.9
20260902051829 16 113 0.0 0.0 0.00 0.00 0.00 78 1012.9
20260902051323 16 113 1.6 1.6 0.00 0.00 0.00 78 1012.9
20260902050819 16 293 3.2 3.2 0.00 0.00 0.00 75 1012.9
20260902050309 16 113 0.0 0.0 0.00 0.00 0.00 74 1012.9
20260902045803 16 180 0.0 0.0 0.00 0.00 0.00 74 1012.9
20260902045259 16 293 1.6 1.6 0.00 0.00 0.00 73 1012.9
20260902044754 16 338 3.2 3.2 0.00 0.00 0.00 70 1012.9
20260902044249 16 315 1.6 1.6 0.00 0.00 0.00 69 1012.9
20260902043739 16 338 3.2 3.2 0.00 0.00 0.00 70 1012.8
20260902043233 16 338 3.2 3.2 0.00 0.00 0.00 71 1012.8
20260902042204 16 338 3.2 3.2 0.00 0.00 0.00 70 1012.6
20260902041154 16 293 0.0 0.0 0.00 0.00 0.00 69 1012.4
20260902040139 16 180 0.0 0.0 0.00 0.00 0.00 69 1012.1
20260902035633 16 203 0.0 0.0 0.00 0.00 0.00 68 1012.1
20260902035129 16 248 0.0 0.0 0.00 0.00 0.00 69 1011.9
20260902034114 17 135 1.6 1.6 0.00 0.00 0.00 68 1011.9
20260902033609 17 135 1.6 1.6 0.00 0.00 0.00 63 1011.7
20260902033104 17 338 0.0 0.0 0.00 0.00 0.00 62 1011.7
20260902032559 17 23 0.0 0.0 0.00 0.00 0.00 60 1011.8
20260902032054 18 158 0.0 0.0 0.00 0.00 0.00 61 1011.8
20260902031544 18 248 0.0 0.0 0.00 0.00 0.00 58 1011.6
20260902031039 18 180 0.0 0.0 0.00 0.00 0.00 54 1011.6
20260902030534 18 0 0.0 0.0 0.00 0.00 0.00 44 1011.6
20260902030029 18 315 3.2 3.2 0.00 0.00 0.00 40 1011.5
20260902025014 18 23 4.8 4.8 0.00 0.00 0.00 49 1011.5
20260902024508 19 270 8.0 8.0 0.00 0.00 0.00 44 1011.5
20260902024004 19 0 4.8 4.8 0.00 0.00 0.00 26 1011.4
20260902023459 19 23 8.0 8.0 0.00 0.00 0.00 27 1011.4
20260902022954 19 270 8.0 8.0 0.00 0.00 0.00 30 1011.4
20260902022444 19 270 6.4 6.4 0.00 0.00 0.00 32 1011.3
20260902021939 18 0 6.4 6.4 0.00 0.00 0.00 35 1011.3
20260902021434 18 293 6.4 6.4 0.00 0.00 0.00 47 1011.3
20260902020929 18 270 8.0 8.0 0.00 0.00 0.00 51 1011.3
20260902020424 17 23 8.0 8.0 0.00 0.00 0.00 62 1011.6
20260902015409 17 0 6.4 6.4 0.00 0.00 0.00 72 1011.6
20260902014904 18 0 4.8 4.8 0.00 0.00 0.00 72 1011.5
20260902014359 18 270 8.0 8.0 0.00 0.00 0.00 72 1011.5
20260902013854 18 270 3.2 3.2 0.00 0.00 0.00 70 1011.6
20260902013344 18 23 6.4 6.4 0.00 0.00 0.00 71 1011.6
20260902012839 18 225 8.0 8.0 0.00 0.00 0.00 68 1011.6
20260902012334 19 270 4.8 4.8 0.00 0.00 0.00 63 1011.7
20260902011829 19 270 4.8 4.8 0.00 0.00 0.00 63 1011.7
20260902011319 20 0 6.4 6.4 0.00 0.00 0.00 62 1011.7
20260902010814 20 315 8.0 8.0 0.00 0.00 0.00 60 1011.7
20260902010309 21 338 6.4 6.4 0.00 0.00 0.00 60 1011.9
20260902005804 21 315 8.0 8.0 0.00 0.00 0.00 56 1011.9
20260902005259 22 0 6.4 6.4 0.00 0.00 0.00 58 1011.9
20260902004754 22 270 8.0 8.0 0.00 0.00 0.00 56 1011.8
20260902004244 22 0 8.0 8.0 0.00 0.00 0.00 56 1011.8
20260902003739 23 270 9.7 9.7 0.00 0.00 0.00 54 1011.7
20260902003234 23 315 9.7 9.7 0.00 0.00 0.00 53 1011.7
20260902002729 23 225 8.0 8.0 0.00 0.00 0.00 53 1011.7
20260902002219 23 45 9.7 9.7 0.00 0.00 0.00 54 1011.7
20260902001714 24 225 9.7 9.7 0.00 0.00 0.00 53 1011.7
20260902001209 24 68 8.0 8.0 0.00 0.00 0.00 52 1011.9
20260902000704 25 23 8.0 8.0 0.00 0.00 0.00 52 1011.9
20260901235649 25 270 8.0 8.0 0.00 0.00 0.00 52 1012.0
20260901234639 25 270 9.7 9.7 0.00 0.00 0.00 52 1012.0
20260901234134 24 225 11.3 11.3 0.00 0.00 0.00 52 1012.0
20260901232614 25 338 8.0 8.0 0.00 0.00 0.00 53 1012.0
20260901232109 25 45 8.0 8.0 0.00 0.00 0.00 53 1012.0
20260901231604 25 270 8.0 8.0 0.00 0.00 0.00 53 1012.0
20260901231059 26 248 11.3 11.3 0.00 0.00 0.00 53 1012.0
20260901230554 26 225 9.7 9.7 0.00 0.00 0.00 52 1012.0
20260901225539 26 0 8.0 8.0 0.00 0.00 0.00 52 1012.1
20260901225034 26 45 8.0 8.0 0.00 0.00 0.00 49 1012.2
20260901224524 27 248 8.0 8.0 0.00 0.00 0.00 51 1012.2
20260901224019 26 270 8.0 8.0 0.00 0.00 0.00 51 1012.2
20260901223514 26 225 9.7 9.7 0.00 0.00 0.00 51 1012.3
20260901222504 27 248 8.0 8.0 0.00 0.00 0.00 51 1012.5
20260901221954 27 158 8.0 8.0 0.00 0.00 0.00 50 1012.5
20260901221449 26 293 6.4 6.4 0.00 0.00 0.00 52 1012.6
20260901220944 26 180 6.4 6.4 0.00 0.00 0.00 52 1012.6
20260901220439 26 180 6.4 6.4 0.00 0.00 0.00 51 1012.6
20260901215934 25 203 8.0 8.0 0.00 0.00 0.00 54 1012.6
20260901215424 26 270 8.0 8.0 0.00 0.00 0.00 52 1012.6
20260901214919 25 203 9.7 9.7 0.00 0.00 0.00 55 1012.6
20260901214414 26 315 9.7 9.7 0.00 0.00 0.00 52 1012.6
20260901213909 27 0 8.0 8.0 0.00 0.00 0.00 51 1013.0
20260901213404 27 203 6.4 6.4 0.00 0.00 0.00 51 1013.0
20260901212854 26 180 8.0 8.0 0.00 0.00 0.00 52 1013.0
20260901212349 26 158 9.7 9.7 0.00 0.00 0.00 52 1012.8
20260901211844 28 180 6.4 6.4 0.00 0.00 0.00 48 1012.8
20260901211340 28 158 4.8 4.8 0.00 0.00 0.00 49 1012.7
20260901210829 29 270 8.0 8.0 0.00 0.00 0.00 48 1012.7
20260901210324 27 113 4.8 4.8 0.00 0.00 0.00 50 1013.0
20260901205315 29 0 6.4 6.4 0.00 0.00 0.00 47 1013.0
20260901203250 29 158 3.2 3.2 0.00 0.00 0.00 47 1013.1
20260901202744 29 270 6.4 6.4 0.00 0.00 0.00 48 1013.3
20260901202239 29 338 4.8 4.8 0.00 0.00 0.00 48 1013.3
20260901201730 27 0 6.4 6.4 0.00 0.00 0.00 51 1013.3
20260901201225 29 203 8.0 8.0 0.00 0.00 0.00 48 1013.4
20260901200719 30 113 3.2 3.2 0.00 0.00 0.00 46 1013.4
20260901200214 30 113 3.2 3.2 0.00 0.00 0.00 46 1013.6
20260901195710 28 248 3.2 3.2 0.00 0.00 0.00 48 1013.6
20260901195159 27 158 3.2 3.2 0.00 0.00 0.00 51 1013.6
20260901194654 28 135 6.4 6.4 0.00 0.00 0.00 50 1013.6
20260901194150 28 293 4.8 4.8 0.00 0.00 0.00 50 1013.6
20260901193134 27 23 6.4 6.4 0.00 0.00 0.00 51 1013.6
20260901192105 26 225 6.4 6.4 0.00 0.00 0.00 53 1013.7
20260901191600 26 113 6.4 6.4 0.00 0.00 0.00 53 1013.7
20260901191054 26 203 6.4 6.4 0.00 0.00 0.00 53 1013.7
20260901185615 27 270 6.4 6.4 0.00 0.00 0.00 51 1013.8
20260901185105 30 225 6.4 6.4 0.00 0.00 0.00 47 1013.8
20260901183045 30 158 3.2 3.2 0.00 0.00 0.00 46 1013.9
20260901182534 28 0 1.6 1.6 0.00 0.00 0.00 49 1013.7
20260901181525 26 180 4.8 4.8 0.00 0.00 0.00 52 1014.0
20260901181020 28 113 3.2 3.2 0.00 0.00 0.00 51 1014.0
20260901180515 26 90 3.2 3.2 0.00 0.00 0.00 52 1014.0
20260901174415 27 315 1.6 1.6 0.00 0.00 0.00 50 1013.8
20260901173905 26 180 1.6 1.6 0.00 0.00 0.00 52 1013.8
20260901173400 27 293 0.0 0.0 0.00 0.00 0.00 50 1013.8
20260901172855 26 45 3.2 3.2 0.00 0.00 0.00 49 1013.8
20260901172350 26 23 3.2 3.2 0.00 0.00 0.00 52 1013.8
20260901171840 26 180 1.6 1.6 0.00 0.00 0.00 49 1013.8
20260901171245 25 225 3.2 3.2 0.00 0.00 0.00 55 1013.6
20260901170735 25 23 0.0 0.0 0.00 0.00 0.00 54 1013.6
20260901165725 25 0 1.6 1.6 0.00 0.00 0.00 55 1013.5
20260901164715 25 338 1.6 1.6 0.00 0.00 0.00 55 1013.5
20260901164205 23 270 1.6 1.6 0.00 0.00 0.00 59 1013.5
20260901163700 22 23 1.6 1.6 0.00 0.00 0.00 63 1013.3
20260901163155 21 23 3.2 3.2 0.00 0.00 0.00 66 1013.3
20260901162650 21 270 3.2 3.2 0.00 0.00 0.00 67 1013.4
20260901161635 20 180 1.6 1.6 0.00 0.00 0.00 69 1013.4
20260901161130 20 248 4.8 4.8 0.00 0.00 0.00 72 1013.5
20260901160625 20 0 4.8 4.8 0.00 0.00 0.00 70 1013.5
20260901155610 18 135 4.8 4.8 0.00 0.00 0.00 75 1013.4
20260901155105 18 270 1.6 1.6 0.00 0.00 0.00 79 1013.4
20260901154430 18 135 1.6 1.6 0.00 0.00 0.00 79 1013.4
20260901153345 17 135 1.6 1.6 0.00 0.00 0.00 82 1013.4
20260901152835 17 225 0.0 0.0 0.00 0.00 0.00 83 1013.4
20260901152330 17 158 6.4 6.4 0.00 0.00 0.00 83 1013.4
20260901151825 17 158 4.8 4.8 0.00 0.00 0.00 84 1013.4
20260901151320 17 158 4.8 4.8 0.00 0.00 0.00 85 1013.3
20260901150640 17 158 4.8 4.8 0.00 0.00 0.00 86 1013.3
20260901150135 17 135 4.8 4.8 0.00 0.00 0.00 86 1012.8
20260901145050 16 180 1.6 1.6 0.00 0.00 0.00 87 1012.7
20260901144035 16 135 4.8 4.8 0.00 0.00 0.00 88 1012.7
20260901143530 16 113 8.0 8.0 0.00 0.00 0.00 88 1012.6
20260901143026 16 135 6.4 6.4 0.00 0.00 0.00 89 1012.6
20260901141505 16 158 4.8 4.8 0.00 0.00 0.00 90 1012.4
20260901140455 16 180 6.4 6.4 0.00 0.00 0.00 90 1012.4
20260901135950 16 203 0.0 0.0 0.00 0.00 0.00 90 1012.3
20260901135405 16 180 0.0 0.0 0.00 0.00 0.00 90 1012.3
20260901134335 16 248 0.0 0.0 0.00 0.00 0.00 90 1012.4
20260901133305 16 203 0.0 0.0 0.00 0.00 0.00 90 1012.2
20260901132800 16 225 0.0 0.0 0.00 0.00 0.00 90 1012.2
20260901132255 16 315 0.0 0.0 0.00 0.00 0.00 90 1012.2
20260901131750 16 270 1.6 1.6 0.00 0.00 0.00 90 1012.2
20260901130735 16 180 4.8 4.8 0.00 0.00 0.00 90 1012.1
20260901130230 16 180 0.0 0.0 0.00 0.00 0.00 90 1012.0
20260901125706 16 158 0.0 0.0 0.00 0.00 0.00 90 1012.0
20260901124130 16 113 0.0 0.0 0.00 0.00 0.00 90 1012.1
20260901123625 16 338 0.0 0.0 0.00 0.00 0.00 90 1012.0
20260901123115 16 315 1.6 1.6 0.00 0.00 0.00 90 1012.0
20260901122105 16 180 0.0 0.0 0.00 0.00 0.00 90 1011.9
20260901121601 16 0 0.0 0.0 0.00 0.00 0.00 90 1011.9
20260901121055 16 180 0.0 0.0 0.00 0.00 0.00 90 1011.9
20260901120545 16 293 0.0 0.0 0.00 0.00 0.00 90 1011.9
20260901120040 16 180 1.6 1.6 0.00 0.00 0.00 90 1011.7
20260901115535 16 135 0.0 0.0 0.00 0.00 0.00 89 1011.7
20260901115030 16 203 0.0 0.0 0.00 0.00 0.00 89 1011.7
20260901114525 15 315 0.0 0.0 0.00 0.00 0.00 89 1011.7
20260901114015 15 0 0.0 0.0 0.00 0.00 0.00 89 1011.7
20260901113510 15 0 0.0 0.0 0.00 0.00 0.00 89 1011.7
20260901113005 15 68 0.0 0.0 0.00 0.00 0.00 89 1011.7
20260901112500 15 180 0.0 0.0 0.00 0.00 0.00 89 1011.7
20260901111955 15 45 0.0 0.0 0.00 0.00 0.00 89 1011.7
20260901111445 15 45 0.0 0.0 0.00 0.00 0.00 89 1011.9
20260901110940 15 135 0.0 0.0 0.00 0.00 0.00 89 1011.9
20260901110435 15 338 0.0 0.0 0.00 0.00 0.00 89 1011.9
20260901105931 15 0 0.0 0.0 0.00 0.00 0.00 89 1012.0
20260901105425 15 338 0.0 0.0 0.00 0.00 0.00 89 1012.0
20260901104915 15 293 1.6 1.6 0.00 0.00 0.00 89 1012.0
20260901104355 15 90 0.0 0.0 0.00 0.00 0.00 89 1012.0
20260901103846 15 23 0.0 0.0 0.00 0.00 0.00 89 1012.0
20260901103340 15 0 1.6 1.6 0.00 0.00 0.00 89 1012.0
20260901102836 15 338 1.6 1.6 0.00 0.00 0.00 89 1012.0
20260901102330 15 225 1.6 1.6 0.00 0.00 0.00 89 1012.0
20260901101826 15 338 6.4 6.4 0.00 0.00 0.00 89 1012.0
20260901101315 15 338 3.2 3.2 0.00 0.00 0.00 89 1012.2
20260901100811 15 293 3.2 3.2 0.00 0.00 0.00 89 1012.2
20260901100305 15 293 1.6 1.6 0.00 0.00 0.00 89 1012.0
20260901094745 15 270 0.0 0.0 0.00 0.00 0.00 88 1011.9
20260901094241 15 315 0.0 0.0 0.00 0.00 0.00 88 1011.9
20260901093735 15 203 0.0 0.0 0.00 0.00 0.00 88 1011.8
20260901093230 15 180 0.0 0.0 0.00 0.00 0.00 88 1011.8